Location: Joplin, MO
(37.0842°N, 94.5133°W)
Time: 19:33:27
(UTC+02:00)

Courier 1B Rocket - Pass Details

Date: 03 April 2023
Orbit: 920 x 1202 km, 28.2° (Epoch: 08 June)

Event Time Altitude Azimuth Distance (km) Brightness Sun altitude
Rises 00:28:08 0° 231° (SW) 4,086 9.3 25.5°
Reaches altitude 10° 00:31:22 10° 221° (SW) 3,113 8.6 24.9°
Maximum altitude 00:37:56 31° 163° (SSE) 1,928 6.7 23.6°
Drops below altitude 10° 00:44:16 10° 105° (ESE) 3,000 7.1 22.4°
Sets 00:47:20 0° 95° (E) 3,917 7.6 21.8°
